sat.trackr.live / text

‹ back to catalog

WISDOM A

NORAD 66688 · 2025-276Y

PAYLOAD ACTIVE UNKNOWN

§ Identity

Operator
Country
HUN
Launch date
2025-11-28
Launch site
AFWTR
Launch vehicle
Mass (kg)
RCS (m²)

External: N2YO · Heavens-Above · Gunter

§ Orbital elements

Epoch: 2026-09-20T03:19:57.197280Z

Period
94.73 min
Inclination
97.4137°
Eccentricity
0.0005649
Mean motion
15.20104716 rev/d
Perigee alt
501.6 km
Apogee alt
509.4 km
Semi-major
6,883.7 km
B*
1.5660e-4
RAAN
335.0008°
Arg perigee
41.5199°
Mean anomaly
318.6464°
Rev number
4,483

§ Raw data

WISDOM A1 66688U 25276Y   26263.13885645  .00003316  00000+0  15660-3 0  99982 66688  97.4137 335.0008 0005649  41.5199 318.6464 15.20104716 44837

JSON: /api/v1/satellites/66688 · /tle

For live sub-satellite position, see the globe view (requires WebGL).

§ Visibility from observer

Set your observer location to see the next 7 days of passes ≥ 10°. The values pass through the URL so the page stays shareable.

No JS? Fill the form by hand. The geolocation button needs JavaScript.